Regional Weather Roundup
Issued by NWS

Home | Current Version | Previous Version | Graphics & Text | Print | Product List | Glossary On
Versions: 1 2 3 4 5 6 7 8 9 10 11 12 13 14 15 16 17 18 19 20 21 22 23 24 25 26 27 28 29 30 31 32 33 34 35 36 37 38 39 40 41 42 43 44 45 46 47 48 49 50
000
ASUS43 KMKX 301821
RWRWI

WISCONSIN REGIONAL WEATHER ROUNDUP
NATIONAL WEATHER SERVICE MILWAUKEE/SULLIVAN WI
100 PM CDT SUN AUG 30 2015

NOTE: "FAIR" INDICATES FEW OR NO CLOUDS BELOW 12,000 FEET WITH NO
SIGNIFICANT WEATHER AND/OR OBSTRUCTIONS TO VISIBILITY.

WIZ001-002-006>008-014>016-023>028-301900-
NORTHWEST WISCONSIN

CITY           SKY/WX    TMP DP  RH WIND       PRES   REMARKS
SUPERIOR ARPT  SUNNY     78  66  67 SW9       29.90F HX  80
6HR MIN TEMP:  65; 6HR MAX TEMP:  78;

ASHLAND        SUNNY     80  65  59 SW10G17   29.92F HX  82
6HR MIN TEMP:  65; 6HR MAX TEMP:  80;

HAYWARD        SUNNY     74  61  63 S14       29.98F
6HR MIN TEMP:  63; 6HR MAX TEMP:  74;

SIREN          SUNNY     76  63  62 S9        29.96S
6HR MIN TEMP:  64; 6HR MAX TEMP:  76;

CUMBERLAND     MOSUNNY   72  63  73 S10       30.00F
RICE LAKE      MOSUNNY   71  63  75 S9        30.02F
6HR MIN TEMP:  59; 6HR MAX TEMP:  71;

CHETEK         PTSUNNY  N/A N/A N/A SE9       30.01F
LADYSMITH      MOSUNNY   73  64  72 S10       30.03F
6HR MIN TEMP:  59; 6HR MAX TEMP:  74;

EAU CLAIRE     MOSUNNY   74  63  68 S12       30.02F
6HR MIN TEMP:  56; 6HR MAX TEMP:  74;

MENOMONIE      PTSUNNY   71  64  77 S12       30.02F
6HR MIN TEMP:  56; 6HR MAX TEMP:  72;

NEW RICHMOND   SUNNY     75  63  65 S12       29.99F
6HR MIN TEMP:  62; 6HR MAX TEMP:  75;

OSCEOLA        SUNNY     74  63  67 S13       30.01S
6HR MIN TEMP:  64; 6HR MAX TEMP:  74;

$$

WIZ003>005-009-010-017-018-301900-
NORTH CENTRAL WISCONSIN

CITY           SKY/WX    TMP DP  RH WIND       PRES   REMARKS
MANITOWISH WTR SUNNY     73  63  69 S12G20    30.00F
6HR MIN TEMP:  60; 6HR MAX TEMP:  74;

ARBOR VITAE    SUNNY     77  66  69 S12       30.01F
6HR MIN TEMP:  60; 6HR MAX TEMP:  77;

WOODRUFF       SUNNY     77  66  69 S12       30.01F
6HR MIN TEMP:  60; 6HR MAX TEMP:  77;

RHINELANDER    MOSUNNY   71  61  70 VRB7      30.04F
6HR MIN TEMP:  58; 6HR MAX TEMP:  71;

EAGLE RIVER    SUNNY     73  58  60 SW10      30.01F
6HR MIN TEMP:  59; 6HR MAX TEMP:  73;

LAND O LAKES   SUNNY     75  59  58 SW12      30.01F
6HR MIN TEMP:  60; 6HR MAX TEMP:  75;

PHILLIPS       SUNNY     74  64  71 SW12      30.01F
6HR MIN TEMP:  57; 6HR MAX TEMP:  73;

TOMAHAWK       SUNNY     72  62  70 S5        30.04F
MEDFORD        CLOUDY    71  64  78 S8        30.05F
6HR MIN TEMP:  51; 6HR MAX TEMP:  71;

MERRILL        MOSUNNY   72  63  74 SW7       30.05F
6HR MIN TEMP:  52; 6HR MAX TEMP:  71;

$$

WIZ029-030-035-036-043>047-301900-
CENTRAL WISCONSIN

CITY           SKY/WX    TMP DP  RH WIND       PRES   REMARKS
WAUSAU         MOSUNNY   72  62  71 SW8       30.03F
6HR MIN TEMP:  52; 6HR MAX TEMP:  73;

MOSINEE        MOSUNNY   72  64  78 S9        30.07F
MARSHFIELD     SUNNY     74  61  63 S9        30.05F
6HR MIN TEMP:  55; 6HR MAX TEMP:  74;

STEVENS POINT  MOSUNNY   71  61  70 SW8       30.06F
6HR MIN TEMP:  51; 6HR MAX TEMP:  71;

WAUPACA        SUNNY     73  63  69 SW7       30.06F
6HR MIN TEMP:  53; 6HR MAX TEMP:  74; 6HR PCP:  0.03;

WAUTOMA        MOSUNNY   72  63  73 S6        30.07F
6HR MIN TEMP:  55; 6HR MAX TEMP:  72; 6HR PCP:  0.01;

WISC RAPIDS    MOSUNNY   73  61  65 S7        30.07F
6HR MIN TEMP:  55; 6HR MAX TEMP:  73;

CAMP DOUGLAS   PTSUNNY   73  72  94 SE8       30.05F
$$

WIZ011>013-019>022-031-037>040-048>050-301900-
NORTHEAST WISCONSIN

CITY           SKY/WX    TMP DP  RH WIND       PRES   REMARKS
ANTIGO         MOSUNNY   71  61  70 SW9       30.06F
SHAWANO        PTSUNNY   73  62  69 W8        30.05F
6HR MIN TEMP:  53; 6HR MAX TEMP:  73;

OCONTO         PTSUNNY   73  64  73 SW8       30.04S
6HR MIN TEMP:  52; 6HR MAX TEMP:  73;

STURGEON BAY   PTSUNNY   72  63  73 S8        30.06F
6HR MIN TEMP:  59; 6HR MAX TEMP:  72;

GREEN BAY      MOSUNNY   73  63  70 SW7       30.05F
6HR MIN TEMP:  56; 6HR MAX TEMP:  72;

MANITOWOC      CLOUDY    69  62  78 MISG      30.07F
6HR MIN TEMP:  57; 6HR MAX TEMP:  69;

APPLETON       CLOUDY    70  61  73 SW7       30.05F
CLINTONVILLE   CLOUDY    72  61  68 SW10      30.05F
OSHKOSH        CLOUDY    70  61  73 SW7       30.07S
6HR MIN TEMP:  55; 6HR MAX TEMP:  70;

$$

WIZ032>034-041-042-053>061-301900-
SOUTHWEST WISCONSIN

CITY           SKY/WX    TMP DP  RH WIND       PRES   REMARKS
LA CROSSE      CLOUDY    72  63  73 S8        30.05F
6HR MIN TEMP:  59; 6HR MAX TEMP:  72;

SPARTA         MOSUNNY   73  60  64 W5        30.06F
6HR MIN TEMP:  51; 6HR MAX TEMP:  73;

VIROQUA          N/A     69  62  78 SW7       30.09S
6HR MIN TEMP:  58; 6HR MAX TEMP:  70;

BOSCOBEL       CLOUDY    73  62  68 VRB6      30.07F
6HR MIN TEMP:  60; 6HR MAX TEMP:  73;

PRAIRIE DU CHI CLOUDY    71  61  70 S6        30.07F
6HR MIN TEMP:  58; 6HR MAX TEMP:  71;

PLATTEVILLE    PTSUNNY   72  65  78 CALM      30.08F
6HR MIN TEMP:  58; 6HR MAX TEMP:  72;

$$

WIZ056-057-062-063-064-067-068-301900-
SOUTH CENTRAL WISCONSIN

CITY           SKY/WX    TMP DP  RH WIND       PRES   REMARKS
REEDSBURG      MOSUNNY   71  63  74 SW5       30.07S
6HR MIN TEMP:  57; 6HR MAX TEMP:  72;

BARABOO/DELLS  PTSUNNY   73  60  64 S6        30.08S
6HR MIN TEMP:  58; 6HR MAX TEMP:  73;

LONE ROCK      CLOUDY    74  62  66 MISG      30.07F
6HR MIN TEMP:  61; 6HR MAX TEMP:  74;

MINERAL POINT  CLOUDY    72  63  73 SW5       30.09S
MADISON        PTSUNNY   70  61  73 VRB6      30.07F
6HR MIN TEMP:  61; 6HR MAX TEMP:  71;

MIDDLETON      MOSUNNY   73  60  63 SW5       30.08F
6HR MIN TEMP:  62; 6HR MAX TEMP:  74;

WATERTOWN      CLOUDY    70  65  84 SW8       30.07F
6HR MIN TEMP:  62; 6HR MAX TEMP:  70;

MONROE         PTSUNNY   70  61  73 S5        30.08F
JANESVILLE     CLOUDY    72  61  68 CALM      30.08F
$$

WIZ051-052-058>065-066-070>072-301900-
SOUTHEAST WISCONSIN

CITY           SKY/WX    TMP DP  RH WIND       PRES   REMARKS
MILWAUKEE      CLOUDY    69  62  78 E6        30.08S
6HR MIN TEMP:  63; 6HR MAX TEMP:  70;

WAUKESHA       CLOUDY    66  61  82 CALM      30.10F
MILWAUKEE/TIMM PTSUNNY   72  59  64 W8        30.09S
RACINE         CLOUDY    71  63  75 N5        30.09F
6HR MIN TEMP:  63; 6HR MAX TEMP:  70;

BURLINGTON     CLOUDY    70  60  70 CALM      30.08F
6HR MIN TEMP:  59; 6HR MAX TEMP:  70;

KENOSHA        CLOUDY    70  63  78 CALM      30.08F
6HR MIN TEMP:  63; 6HR MAX TEMP:  70;

FOND DU LAC    CLOUDY    71  62  73 SW7       30.07F
6HR MIN TEMP:  62; 6HR MAX TEMP:  71;

SHEBOYGAN      CLOUDY    70  62  76 SW8       30.07F
6HR MIN TEMP:  56; 6HR MAX TEMP:  70;

WEST BEND      CLOUDY    70  59  68 SW5       30.08S
JUNEAU         PTSUNNY   69  61  75 S6        30.09F
6HR MIN TEMP:  57; 6HR MAX TEMP:  69; 6HR PCP:  0.01;

$$

LSZ147-162-301900-
LAKE SUPERIOR

STATION/POSITION TIME  TEMP    WIND        PRES    WAVE
                       AIR SEA DIR/SP/G            HT/PER
                 (UTC) (F)     (DEG/KT/KT) (MB)    (FT/S)
W MID LAKE BUOY  1750   58 55  220/  8/ 10 1012.3F   1/ 3
DEVILS ISLAND    1800   63     240/  5/  8 1012.4F
PORT WING        1700   75     210/  9/ 15 1013.2
SAXON HARBOR     1700   77     200/  6/ 12 1013.2F
$$

LMZ867-665-643>646-301900-
LAKE MICHIGAN

STATION/POSITION TIME  TEMP    WIND        PRES    WAVE
                       AIR SEA DIR/SP/G            HT/PER
                 (UTC) (F)     (DEG/KT/KT) (MB)    (FT/S)
CHAMBERS ISLAND  1700   67     170/  6/ 13 1017.3F
S GREEN BAY BUOY 1800   67 64  210/  8/ 10 1018.7


USA.gov is the U.S. government's official web portal to all federal, state and local government web resources and services.